Regional Weather Roundup
Issued by NWS

Home | Current Version | Previous Version | Graphics & Text | Print | Product List | Glossary Off
Versions: 1 2 3 4 5 6 7 8 9 10 11 12 13 14 15 16 17 18 19 20 21 22 23 24 25 26 27 28 29 30 31 32 33 34 35 36 37 38 39 40 41 42 43 44 45 46 47 48 49 50

000
ASUS43 KMKX 292011
RWRWI

WISCONSIN REGIONAL WEATHER ROUNDUP
NATIONAL WEATHER SERVICE MILWAUKEE/SULLIVAN WI
300 PM CDT TUE JUL 29 2014

NOTE: "FAIR" INDICATES FEW OR NO CLOUDS BELOW 12,000 FEET WITH NO
SIGNIFICANT WEATHER AND/OR OBSTRUCTIONS TO VISIBILITY.

WIZ001-002-006>008-014>016-023>028-292100-
NORTHWEST WISCONSIN

CITY           SKY/WX    TMP DP  RH WIND       PRES   REMARKS
SUPERIOR ARPT  SUNNY     78  56  46 W10G20    30.00F
ASHLAND        TSTM      61  58  90 NE12G20   30.03R FOG
HAYWARD        CLOUDY    72  56  57 VRB6      30.04F
SIREN          MOSUNNY   76  53  44 NW13G23   30.05F
RICE LAKE      PTSUNNY   67  58  73 W10G20    30.08R
LADYSMITH      CLOUDY    70  59  66 NW10      30.05S
EAU CLAIRE     PTSUNNY   71  56  58 W12G20    30.04F
MENOMONIE      PTCLDY    78  53  41 W10       30.05F
NEW RICHMOND   MOSUNNY   74  58  58 W6        30.07F
OSCEOLA        MOSUNNY   78  56  47 NW9       30.09F
$$

WIZ003>005-009-010-017-018-292100-
NORTH CENTRAL WISCONSIN

CITY           SKY/WX    TMP DP  RH WIND       PRES   REMARKS
WOODRUFF       MOSUNNY   76  59  55 W10G16    30.00F
RHINELANDER    LGT RAIN  70  56  61 VRB3      30.00F
EAGLE RIVER    LGT RAIN  63  56  79 NE5       30.00S
LAND O LAKES   PTSUNNY   69  52  55 N6        30.01F
PHILLIPS       MOSUNNY   73  57  58 W9        30.01F THUNDER
TOMAHAWK       MOSUNNY   74  55  51 W7G17     30.00F
MEDFORD        PTSUNNY   69  56  63 W9G21     30.03F THUNDER
MERRILL        MOSUNNY   75  56  52 W9        30.00F
$$

WIZ029-030-035-036-043>047-292100-
CENTRAL WISCONSIN

CITY           SKY/WX    TMP DP  RH WIND       PRES   REMARKS
WAUSAU         MOSUNNY   76  53  44 NW16G23   29.99F
MOSINEE        NOT AVBL
MARSHFIELD     MOSUNNY   77  54  44 W9        30.02F
STEVENS POINT  MOSUNNY   74  53  47 W9G18     30.02F
WAUPACA        PTSUNNY   80  51  37 NW10      30.00F
WAUTOMA        MOSUNNY   80  53  39 NW10      30.02S HX  80
WISC RAPIDS    PTSUNNY   78  53  41 W13       30.03F
CAMP DOUGLAS   MOSUNNY   77  57  50 NW8       30.04F
$$

WIZ011>013-019>022-031-037>040-048>050-292100-
NORTHEAST WISCONSIN

CITY           SKY/WX    TMP DP  RH WIND       PRES   REMARKS
ANTIGO         MOSUNNY   73  56  57 W15G21    29.99F
STURGEON BAY   PTSUNNY   64  59  82 W6        29.98S
GREEN BAY      TSTM      70  62  76 NE14      29.98S
MANITOWOC      PTSUNNY   76  54  46 N12       29.97F
APPLETON       PTSUNNY   75  52  43 NW12G23   29.99F
CLINTONVILLE   PTSUNNY   77  50  38 NW13      29.98F
OSHKOSH        SUNNY     77  54  44 N13       29.99F
$$

WIZ032>034-041-042-053>061-292100-
SOUTHWEST WISCONSIN

CITY           SKY/WX    TMP DP  RH WIND       PRES   REMARKS
LA CROSSE      SUNNY     82  55  39 NW12      30.04F HX  81
SPARTA         MOSUNNY   77  53  43 NW8       30.05F
VIROQUA        MOCLDY    77  56  48 NW7       30.07F
BOSCOBEL       MOSUNNY   82  56  40 W9        30.06S HX  82
PRAIRIE DU CHI SUNNY     79  48  33 W12       30.06S
PLATTEVILLE    FAIR      78  53  42 NW13      30.08S
$$

WIZ056-057-062-063-064-067-068-292100-
SOUTH CENTRAL WISCONSIN

CITY           SKY/WX    TMP DP  RH WIND       PRES   REMARKS
BARABOO/DELLS  MOSUNNY   78  50  37 NW10G16   30.04F
LONE ROCK      MOSUNNY   81  56  42 NW12      30.04F HX  81
WATERTOWN      MOSUNNY   76  54  46 W15       30.02S
MADISON        PTSUNNY   78  54  43 NW10      30.03S
MIDDLETON      FAIR      79  49  34 NW13G18   30.04F
MONROE         PTSUNNY   77  52  41 NW15      30.05S
JANESVILLE     MOSUNNY   81  50  34 NW13      30.03F HX  80
$$

WIZ051-052-058>065-066-070>072-292100-
SOUTHEAST WISCONSIN

CITY           SKY/WX    TMP DP  RH WIND       PRES   REMARKS
MILWAUKEE      PTSUNNY   77  52  41 W12       30.00S
WAUKESHA       MOSUNNY   75  52  43 NW16      30.03R
MILWAUKEE/TIMM PTSUNNY   77  50  38 NW14      30.01S
RACINE         PTSUNNY   74  59  59 SE10      30.02S
BURLINGTON     MOSUNNY   75  53  46 W9        30.02S
KENOSHA        MOSUNNY   77  54  44 NW12G18   30.02S
FOND DU LAC    MOSUNNY   78  54  43 W15       30.00S
SHEBOYGAN      SUNNY     76  55  48 NW10      29.99S
WEST BEND      PTSUNNY   73  52  46 W13       30.00F
JUNEAU         MOSUNNY   76  46  34 NW9G18    30.03S
$$

LSZ147-162-292100-
LAKE SUPERIOR

STATION/POSITION TIME  TEMP    WIND        PRES    WAVE
                       AIR SEA DIR/SP/G            HT/PER
                 (UTC) (F)     (DEG/KT/KT) (MB)    (FT/S)
W MID LAKE BUOY  1950   51 44  230/  8/ 10 1015.8F   1
PORT WING        1900   69     240/ 13/ 15 1015.9F
SAXON HARBOR     1940           30/  9     1017.3S
$$

LMZ867-665-643>646-292100-
LAKE MICHIGAN

STATION/POSITION TIME  TEMP    WIND        PRES    WAVE
                       AIR SEA DIR/SP/G            HT/PER
                 (UTC) (F)     (DEG/KT/KT) (MB)    (FT/S)
N MID LAKE BUOY  1950   58 56  240/  4/  6 1014.5R   1
NORTHPORT PIER   1900   67     350/  3/  5 1014.9S
SISTER BAY       1910   73        CALM       N/A
ALGOMA LAKESHORE 1951          230/  9/ 10   N/A
KEWAUNEE LAKESHO 1900   65      80/  2/  8 1015.9S
SHEBOYGAN LAKESH 2000   75     290/ 13/ 16 1015.1F
PORT WASHINGTON  1900   77     290/  8/ 11 1015.9F
ATWATER BUOY     2000   65     120/  8     1016.8F
MILWAUKEE LAKESH 1900   74     330/  5/  9   N/A
S MID LAKE BUOY  1950   65 64     CALM     1016.6S   1
KENOSHA   LAKESH 2000   66     150/  7/ 10 1016.3R
$$

TC  - TEMPERATURE IN CELSIUS
VSB - VISIBILITY IN STATUTE MILES
WCI - WIND CHILL INDEX
HX  - HEAT INDEX



USA.gov is the U.S. government's official web portal to all federal, state and local government web resources and services.